EW5900 Weather Reports


Display with metric or nautical units.
time (UTC)temp
F
wind
direction
speed
MPH
gust
MPH
rain 1hr
in
rain 24hr
in
rain mn
in
humidity
%
barometer
mb
20180919044342 76 113 3.0 4.0 0.00 0.12 0.00 85 1014.9
20180919043907 76 113 4.0 4.0 0.00 0.12 0.00 85 1014.9
20180919043431 76 135 3.0 3.0 0.00 0.12 0.00 85 1014.9
20180919042957 76 135 3.0 3.0 0.00 0.12 0.00 85 1014.9
20180919042521 76 158 2.0 3.0 0.00 0.12 0.00 85 1014.9
20180919042046 77 135 2.0 3.0 0.00 0.12 0.00 85 1014.9
20180919041140 77 135 3.0 4.0 0.00 0.12 0.00 85 1014.9
20180919040705 77 113 4.0 5.0 0.00 0.12 0.00 85 1014.9
20180919040229 77 113 5.0 5.0 0.00 0.12 0.00 85 1014.9
20180919035754 77 135 4.0 6.0 0.00 0.12 0.12 85 1014.9
20180919035320 77 135 3.0 5.0 0.00 0.12 0.12 85 1014.9
20180919034844 77 135 5.0 6.0 0.00 0.12 0.12 85 1014.9
20180919034410 77 113 6.0 6.0 0.00 0.12 0.12 85 1014.9
20180919033502 77 113 6.0 7.0 0.00 0.12 0.12 85 1014.9
20180919033027 77 113 6.0 6.0 0.00 0.12 0.12 85 1014.9
20180919030744 77 113 5.0 5.0 0.00 0.12 0.12 84 1015.2
20180919030310 77 90 5.0 6.0 0.00 0.12 0.12 84 1015.2
20180919025834 78 135 5.0 5.0 0.00 0.12 0.12 84 1015.2
20180919025359 78 135 5.0 5.0 0.00 0.12 0.12 84 1015.2
20180919024924 78 135 5.0 6.0 0.00 0.12 0.12 84 1015.2
20180919024017 78 158 5.0 8.0 0.00 0.12 0.12 83 1014.9
20180919023542 78 135 7.0 6.0 0.00 0.12 0.12 83 1014.9
20180919023107 78 135 5.0 5.0 0.00 0.12 0.12 83 1014.9
20180919022633 78 135 5.0 6.0 0.00 0.12 0.12 82 1014.9
20180919022158 78 158 5.0 6.0 0.00 0.12 0.12 82 1014.9
20180919021722 78 135 6.0 5.0 0.00 0.12 0.12 82 1014.9
20180919020815 79 158 4.0 4.0 0.00 0.12 0.12 82 1014.5
20180919020341 79 158 3.0 3.0 0.00 0.12 0.12 82 1014.5
20180919015433 79 180 4.0 4.0 0.00 0.12 0.12 82 1014.5
20180919014959 79 158 1.0 4.0 0.00 0.12 0.12 82 1014.5
20180919014523 79 158 4.0 4.0 0.00 0.12 0.12 82 1014.5
20180919014048 79 135 5.0 4.0 0.00 0.12 0.12 82 1014.5
20180919013613 79 158 4.0 4.0 0.00 0.12 0.12 81 1014.2
20180919013138 79 180 3.0 4.0 0.00 0.12 0.12 81 1014.2
20180919012231 79 135 2.0 3.0 0.00 0.12 0.12 80 1014.2
20180919011756 80 158 2.0 2.0 0.00 0.12 0.12 80 1014.2
20180919011321 80 158 2.0 2.0 0.00 0.12 0.12 79 1013.8
20180919010414 80 158 2.0 3.0 0.00 0.12 0.12 79 1013.8
20180919005939 80 203 1.0 2.0 0.00 0.12 0.12 79 1013.8
20180919005033 80 113 3.0 3.0 0.00 0.12 0.12 78 1013.8
20180919004558 80 113 3.0 3.0 0.00 0.12 0.12 78 1013.8
20180919003650 80 135 2.0 3.0 0.00 0.12 0.12 77 1013.5
20180919003215 80 158 3.0 3.0 0.00 0.12 0.12 76 1013.5
20180919002740 81 158 0.0 0.0 0.00 0.12 0.12 76 1013.8
20180919001401 81 203 0.0 0.0 0.00 0.12 0.12 76 1013.5
20180919000926 81 158 0.0 0.0 0.00 0.12 0.12 75 1013.5
20180919000451 81 135 0.0 0.0 0.00 0.12 0.12 75 1013.5
20180919000016 81 180 0.0 0.0 0.00 0.12 0.12 75 1013.5
20180918235541 81 225 0.0 0.0 0.00 0.12 0.12 74 1013.5
20180918235106 81 225 0.0 0.0 0.00 0.12 0.12 74 1013.5
20180918234631 81 203 0.0 1.0 0.00 0.12 0.12 75 1013.5
20180918234156 81 203 1.0 2.0 0.00 0.12 0.12 75 1013.5
20180918233721 81 180 2.0 3.0 0.00 0.12 0.12 75 1013.5
20180918232814 81 180 1.0 3.0 0.00 0.12 0.12 74 1013.5
20180918232339 81 180 1.0 3.0 0.00 0.12 0.12 74 1013.5
20180918231904 81 180 1.0 2.0 0.00 0.12 0.12 75 1013.5
20180918231431 81 203 1.0 4.0 0.00 0.12 0.12 75 1013.5
20180918230954 81 225 1.0 3.0 0.00 0.12 0.12 74 1013.2
20180918230521 81 203 2.0 4.0 0.00 0.12 0.12 74 1013.5
20180918225612 82 203 5.0 5.0 0.02 0.12 0.12 74 1013.2
20180918225137 82 180 3.0 4.0 0.02 0.12 0.12 75 1013.2
20180918224229 82 203 5.0 6.0 0.02 0.12 0.12 74 1013.2
20180918223754 82 203 5.0 5.0 0.02 0.12 0.12 74 1013.2
20180918223320 82 203 3.0 5.0 0.02 0.12 0.12 74 1013.2
20180918222413 82 203 4.0 5.0 0.02 0.12 0.12 74 1013.2
20180918221938 82 225 5.0 5.0 0.02 0.12 0.12 74 1013.2
20180918221502 82 225 4.0 5.0 0.02 0.12 0.12 74 1013.2
20180918221031 82 225 4.0 5.0 0.02 0.12 0.12 75 1012.8
20180918220552 82 225 4.0 5.0 0.02 0.12 0.12 76 1012.8
20180918220117 82 203 3.0 3.0 0.02 0.12 0.12 75 1013.2
20180918215642 82 248 3.0 5.0 0.01 0.12 0.12 76 1013.2
20180918214735 82 248 3.0 3.0 0.01 0.12 0.12 76 1012.8
20180918214300 81 203 2.0 3.0 0.01 0.12 0.12 76 1012.8
20180918213825 81 248 3.0 4.0 0.01 0.12 0.12 76 1013.2
20180918213350 81 248 1.0 3.0 0.01 0.12 0.12 77 1013.2
20180918212915 80 225 2.0 5.0 0.01 0.12 0.12 76 1013.2
20180918212008 81 203 4.0 5.0 0.01 0.12 0.12 77 1013.2
20180918211644 80 90 3.0 3.0 0.01 0.12 0.12 78 1013.5
20180918211127 79 225 2.0 4.0 0.01 0.12 0.12 80 1013.2
20180918210023 78 180 4.0 3.0 0.00 0.12 0.12 80 1012.8
20180918204155 78 158 2.0 2.0 0.00 0.12 0.12 81 1013.2
20180918202952 77 248 2.0 2.0 0.00 0.12 0.12 83 1013.2
20180918202517 77 180 0.0 1.0 0.00 0.12 0.12 83 1013.5
20180918202042 77 203 0.0 4.0 0.00 0.12 0.12 83 1013.5
20180918201607 77 135 4.0 5.0 0.00 0.12 0.12 83 1013.5
20180918201132 77 203 5.0 5.0 0.00 0.11 0.11 84 1013.2
20180918200657 77 158 4.0 6.0 0.00 0.10 0.10 84 1013.2
20180918200222 77 180 6.0 6.0 0.00 0.10 0.10 85 1013.2
20180918195747 77 158 5.0 8.0 0.00 0.10 0.10 84 1013.2
20180918195312 76 135 8.0 11.0 0.00 0.09 0.09 83 1013.5
20180918194837 77 90 6.0 9.0 0.00 0.09 0.09 84 1013.8
20180918194402 77 113 5.0 13.0 0.00 0.08 0.08 83 1013.8
20180918193927 77 90 6.0 11.0 0.00 0.07 0.07 79 1014.2
20180918193452 79 90 13.0 8.0 0.00 0.06 0.06 77 1013.8
20180918193017 80 180 2.0 5.0 0.00 0.04 0.04 76 1013.5
20180918192542 82 0 5.0 13.0 0.00 0.02 0.02 74 1013.5
20180918192107 83 90 13.0 20.0 0.00 0.00 0.00 69 1013.8
20180918191632 84 113 6.0 6.0 0.00 0.00 0.00 66 1013.8
20180918191157 85 203 6.0 6.0 0.00 0.00 0.00 66 1013.5
20180918190722 85 248 4.0 6.0 0.00 0.00 0.00 66 1013.5
20180918190249 85 203 6.0 8.0 0.00 0.00 0.00 65 1013.8
20180918185812 85 225 11.0 11.0 0.00 0.00 0.00 64 1013.5
20180918185337 85 225 11.0 12.0 0.00 0.00 0.00 64 1013.5
20180918184902 85 225 9.0 10.0 0.00 0.00 0.00 64 1013.8
20180918184427 86 248 9.0 10.0 0.00 0.00 0.00 63 1013.5
20180918183952 86 225 9.0 12.0 0.00 0.00 0.00 64 1013.8
20180918183049 87 225 10.0 11.0 0.00 0.00 0.00 61 1013.8
20180918182610 87 225 11.0 11.0 0.00 0.00 0.00 60 1013.8
20180918181703 86 225 7.0 8.0 0.00 0.00 0.00 63 1014.2
20180918181227 86 248 6.0 10.0 0.00 0.00 0.00 65 1014.2
20180918180753 86 225 10.0 12.0 0.00 0.00 0.00 64 1014.2
20180918175847 86 248 6.0 11.0 0.00 0.00 0.00 66 1014.5
20180918175410 86 225 9.0 11.0 0.00 0.00 0.00 67 1014.5
20180918174936 86 225 8.0 9.0 0.00 0.00 0.00 65 1014.5
20180918174501 87 248 8.0 10.0 0.00 0.00 0.00 63 1014.5
20180918174025 88 203 10.0 10.0 0.00 0.00 0.00 63 1014.9
20180918172646 87 225 8.0 11.0 0.00 0.00 0.00 61 1014.9
20180918172211 87 248 11.0 12.0 0.00 0.00 0.00 61 1014.9
20180918171736 88 225 6.0 9.0 0.00 0.00 0.00 62 1014.9
20180918170830 87 248 8.0 9.0 0.00 0.00 0.00 61 1015.2
20180918170355 88 248 8.0 8.0 0.00 0.00 0.00 59 1015.2
20180918165919 88 270 3.0 3.0 0.00 0.00 0.00 55 1015.2
20180918165444 88 158 1.0 3.0 0.00 0.00 0.00 56 1015.2
20180918165010 88 68 2.0 6.0 0.00 0.00 0.00 56 1015.2
20180918164535 88 90 5.0 8.0 0.00 0.00 0.00 56 1015.2
20180918164059 89 68 6.0 5.0 0.00 0.00 0.00 54 1015.2
20180918163624 90 113 2.0 4.0 0.00 0.00 0.00 53 1015.5
20180918163149 91 90 3.0 6.0 0.00 0.00 0.00 52 1015.2
20180918162714 93 135 5.0 5.0 0.00 0.00 0.00 51 1015.2
20180918162239 92 68 1.0 4.0 0.00 0.00 0.00 53 1015.2
20180918161333 89 45 3.0 9.0 0.00 0.00 0.00 55 1015.5
20180918160426 89 113 4.0 6.0 0.00 0.00 0.00 57 1015.5
20180918155518 89 158 5.0 6.0 0.00 0.00 0.00 58 1015.5
20180918154611 88 135 5.0 5.0 0.00 0.00 0.00 60 1015.5
20180918154136 87 90 4.0 7.0 0.00 0.00 0.00 60 1015.9
20180918153702 87 113 8.0 6.0 0.00 0.00 0.00 61 1015.9
20180918152323 88 90 5.0 6.0 0.00 0.00 0.00 62 1015.9
20180918151851 87 158 2.0 7.0 0.00 0.00 0.00 62 1015.9
20180918151412 87 68 7.0 7.0 0.00 0.00 0.00 63 1015.9
20180918150938 86 113 3.0 10.0 0.00 0.00 0.00 64 1015.9
20180918150502 87 158 6.0 10.0 0.00 0.00 0.00 64 1015.9
20180918150029 86 90 3.0 8.0 0.00 0.00 0.00 65 1015.9
20180918145551 86 90 7.0 7.0 0.00 0.00 0.00 65 1015.9
20180918145116 86 113 6.0 7.0 0.00 0.00 0.00 66 1015.9
20180918144642 86 90 5.0 6.0 0.00 0.00 0.00 67 1015.9
20180918143735 85 158 7.0 8.0 0.00 0.00 0.00 68 1015.9
20180918143259 85 68 3.0 5.0 0.00 0.00 0.00 68 1015.9
20180918142824 85 68 5.0 6.0 0.00 0.00 0.00 68 1015.9
20180918142349 85 113 3.0 6.0 0.00 0.00 0.00 68 1015.9
20180918141916 84 23 3.0 5.0 0.00 0.00 0.00 69 1015.9
20180918141439 84 113 5.0 6.0 0.00 0.00 0.00 69 1015.9
20180918141006 84 135 4.0 8.0 0.00 0.00 0.00 70 1015.9
20180918140529 84 90 3.0 6.0 0.00 0.00 0.00 72 1015.9
20180918140056 83 113 6.0 6.0 0.00 0.00 0.00 72 1015.9
20180918135619 83 135 5.0 9.0 0.00 0.00 0.00 71 1015.9
20180918134713 83 90 3.0 7.0 0.00 0.00 0.00 72 1016.2
20180918133805 82 135 9.0 9.0 0.00 0.00 0.00 73 1016.2
20180918132928 82 113 6.0 9.0 0.00 0.00 0.00 74 1016.2
20180918094450 77 135 4.0 4.0 0.00 0.00 0.00 89 1015.5
20180918094015 77 113 5.0 3.0 0.00 0.00 0.00 89 1015.5
20180918093108 77 135 3.0 4.0 0.00 0.00 0.00 89 1015.5
20180918092633 77 135 3.0 4.0 0.00 0.00 0.00 89 1015.5
20180918092157 77 135 3.0 5.0 0.00 0.00 0.00 89 1015.5
20180918091722 77 135 3.0 5.0 0.00 0.00 0.00 89 1015.5
20180918091248 77 135 3.0 4.0 0.00 0.00 0.00 89 1015.2
20180918090813 77 113 4.0 4.0 0.00 0.00 0.00 89 1015.5
20180918090338 77 135 4.0 4.0 0.00 0.00 0.00 89 1015.2
20180918085903 77 135 4.0 4.0 0.00 0.00 0.00 88 1015.5
20180918085427 77 135 4.0 4.0 0.00 0.00 0.00 88 1015.5
20180918084521 77 135 4.0 5.0 0.00 0.00 0.00 88 1015.2
20180918084047 77 135 5.0 5.0 0.00 0.00 0.00 88 1015.2
20180918083610 77 158 3.0 5.0 0.00 0.00 0.00 88 1015.2
20180918083136 77 135 3.0 4.0 0.00 0.00 0.00 88 1015.2
20180918082701 77 113 4.0 5.0 0.00 0.00 0.00 88 1015.2
20180918082226 77 135 5.0 5.0 0.00 0.00 0.00 88 1015.2
20180918081751 77 135 5.0 5.0 0.00 0.00 0.00 88 1015.2
20180918081316 77 135 4.0 5.0 0.00 0.00 0.00 88 1015.2
20180918080840 77 135 4.0 5.0 0.00 0.00 0.00 88 1015.2
20180918080405 77 90 5.0 5.0 0.00 0.00 0.00 88 1015.2
20180918075458 77 113 3.0 4.0 0.00 0.00 0.00 87 1015.2
20180918074551 77 135 3.0 5.0 0.00 0.00 0.00 87 1015.2
20180918074116 77 135 4.0 5.0 0.00 0.00 0.00 87 1015.5
20180918073642 77 113 4.0 5.0 0.00 0.00 0.00 87 1015.5
20180918073206 77 135 4.0 4.0 0.00 0.00 0.00 87 1015.5
20180918072731 77 135 4.0 5.0 0.00 0.00 0.00 87 1015.5
20180918072256 77 113 3.0 4.0 0.00 0.00 0.00 87 1015.5
20180918071821 77 113 2.0 3.0 0.00 0.00 0.00 87 1015.5
20180918071346 77 135 3.0 4.0 0.00 0.00 0.00 86 1015.5
20180918070439 78 135 4.0 6.0 0.00 0.00 0.00 86 1015.5
20180918070004 78 135 5.0 5.0 0.00 0.00 0.00 86 1015.5
20180918065529 78 158 5.0 6.0 0.00 0.00 0.00 86 1015.5
20180918065055 78 135 5.0 5.0 0.00 0.00 0.00 86 1015.9
20180918064619 78 113 4.0 5.0 0.00 0.00 0.00 86 1015.9
20180918064144 78 135 5.0 5.0 0.00 0.00 0.00 86 1015.5
20180918063709 78 135 4.0 5.0 0.00 0.00 0.00 86 1015.9
20180918063234 78 135 5.0 5.0 0.00 0.00 0.00 86 1015.9
20180918062759 78 158 3.0 3.0 0.00 0.00 0.00 86 1015.9
20180918062324 78 158 3.0 3.0 0.00 0.00 0.00 86 1015.9
20180918061849 78 158 3.0 5.0 0.00 0.00 0.00 86 1015.9
20180918061414 78 135 5.0 5.0 0.00 0.00 0.00 86 1015.9
20180918060939 78 135 5.0 5.0 0.00 0.00 0.00 86 1015.9
20180918060504 78 135 5.0 5.0 0.00 0.00 0.00 86 1015.9
20180918060029 78 135 4.0 5.0 0.00 0.00 0.00 86 1015.9
20180918055554 78 135 4.0 5.0 0.00 0.00 0.00 86 1015.9
20180918055119 78 113 4.0 6.0 0.00 0.00 0.00 86 1016.2
20180918054644 78 135 3.0 5.0 0.00 0.00 0.00 86 1016.2
20180918054209 78 135 4.0 4.0 0.00 0.00 0.00 86 1016.2
20180918053734 78 135 3.0 3.0 0.00 0.00 0.00 86 1016.2
20180918053259 78 158 3.0 3.0 0.00 0.00 0.00 86 1016.2
20180918052824 78 158 3.0 3.0 0.00 0.00 0.00 86 1016.2
20180918052349 78 158 3.0 4.0 0.00 0.00 0.00 86 1016.2
20180918051914 78 135 4.0 4.0 0.00 0.00 0.00 86 1016.5
20180918051439 78 135 3.0 3.0 0.00 0.00 0.00 86 1016.5
20180918051004 79 135 3.0 3.0 0.00 0.00 0.00 85 1016.5
20180918050057 79 113 5.0 6.0 0.00 0.00 0.00 85 1016.5
20180918045622 79 135 4.0 5.0 0.00 0.00 0.00 85 1016.2
20180918045147 79 135 5.0 6.0 0.00 0.00 0.00 85 1016.2
20180918044712 79 113 6.0 6.0 0.00 0.00 0.00 84 1016.5